GPS BIIR-8 (PRN 16)

Last updated on Wed Sep 17 2025 00:03:17 GMT+0000 (Coordinated Universal Time)

1 27663U 03005A 25259.38821116 .00000013 00000+0 00000+0 0 9997 2 27663 54.9500 225.8489 0143457 50.6801 307.2684 2.00575626165815
UTC large
Height (km)
Speed (km/s)
/
Latitude / Longitude
Inclination (degrees)
Orbital Period (minutes)
Azimuth
Elevation
Range (km)
Doppler Factor

Next 0 passes for location: London (51.5072 / 0.1276)

Sorry there are no passes over London.